Volver al catálogo

CZ-6A DEB

ActivoPO
NORAD 61346·DEBRIS·🇨🇳 China

Lanzado Aug 6, 2024 desde Taiyuan Satellite Launch Center

Loading…

Próximos Pases (próximas 24 horas)

TLE

ActualizadoSource: Space-Track

Época: Sep 14, 2026, 10:36 UTC

1 61346U 24140VK  26257.44225527  .00021436  00000-0  19444-2 0  9994
2 61346  88.9502 253.0066 0039097 236.1678 123.5830 14.94634298108323

Sigue CZ-6A DEB en tiempo real con AllMySat

Download on the App Store